QPF
0.16 0.14 0.13 0.15 0.12 0.08 0.07 0.07 0.07 0.06 0.06 0.07 0.06 0.07 0.07 0.08 0.09 0.06 0.05 0.06 0.08 0.08 0.10 0.11 0.12 0.15 0.15 0.14 0.13 0.13 0.14 0.13 0.13 0.12 0.07 0.05 0.04 0.02 0.03 0.04 0.05 0.05 0.06
0.08 0.08 0.08 0.09 0.09 0.06 0.05 0.06 0.09 0.08 0.07 0.08 0.09 0.09 0.08 0.09 0.06 0.04 0.06 0.07 0.09 0.10 0.12 0.12 0.12 0.11 0.10 0.11 0.12 0.13 0.12 0.12 0.16 0.13 0.07 0.04 0.03 0.03 0.03 0.03 0.03 0.04 0.06
0.05 0.06 0.06 0.07 0.09 0.06 0.03 0.04 0.07 0.08 0.08 0.09 0.10 0.10 0.10 0.08 0.05 0.05 0.08 0.10 0.13 0.14 0.16 0.16 0.14 0.10 0.08 0.08 0.11 0.12 0.12 0.13 0.17 0.15 0.08 0.04 0.03 0.04 0.03 0.04 0.03 0.03 0.04
0.06 0.06 0.10 0.14 0.12 0.06 0.04 0.04 0.08 0.12 0.08 0.08 0.09 0.08 0.09 0.08 0.06 0.08 0.09 0.14 0.19 0.23 0.24 0.21 0.17 0.12 0.09 0.08 0.09 0.11 0.13 0.17 0.20 0.17 0.10 0.05 0.04 0.05 0.05 0.04 0.03 0.02 0.03
0.09 0.14 0.16 0.12 0.08 0.05 0.04 0.03 0.03 0.05 0.07 0.07 0.06 0.06 0.08 0.08 0.08 0.10 0.10 0.15 0.24 0.30 0.27 0.23 0.16 0.12 0.09 0.07 0.08 0.10 0.13 0.18 0.19 0.15 0.11 0.08 0.05 0.05 0.04 0.03 0.03 0.03 0.03
0.13 0.12 0.11 0.10 0.08 0.06 0.04 0.03 0.03 0.03 0.04 0.06 0.06 0.06 0.07 0.07 0.08 0.09 0.13 0.19 0.26 0.27 0.25 0.19 0.15 0.11 0.07 0.06 0.07 0.11 0.14 0.17 0.18 0.13 0.09 0.07 0.05 0.05 0.04 0.03 0.03 0.03 0.03
0.08 0.08 0.08 0.09 0.08 0.06 0.05 0.03 0.03 0.04 0.04 0.06 0.07 0.06 0.07 0.08 0.07 0.09 0.13 0.17 0.20 0.23 0.22 0.17 0.12 0.08 0.06 0.06 0.08 0.13 0.15 0.16 0.16 0.13 0.08 0.05 0.03 0.04 0.04 0.03 0.03 0.04 0.03
0.05 0.06 0.08 0.09 0.07 0.05 0.05 0.04 0.05 0.05 0.05 0.06 0.06 0.05 0.07 0.08 0.08 0.09 0.09 0.10 0.12 0.20 0.17 0.12 0.09 0.09 0.08 0.08 0.11 0.14 0.16 0.14 0.14 0.15 0.07 0.03 0.03 0.04 0.03 0.03 0.02 0.03 0.04
0.05 0.09 0.15 0.13 0.10 0.07 0.06 0.05 0.06 0.05 0.05 0.06 0.06 0.06 0.07 0.09 0.10 0.10 0.09 0.09 0.14 0.20 0.13 0.09 0.08 0.10 0.12 0.15 0.16 0.17 0.13 0.10 0.10 0.16 0.08 0.03 0.04 0.03 0.02 0.02 0.02 0.03 0.04
0.06 0.07 0.09 0.09 0.09 0.06 0.05 0.06 0.06 0.06 0.06 0.07 0.09 0.08 0.08 0.10 0.11 0.12 0.12 0.15 0.24 0.19 0.11 0.09 0.09 0.09 0.12 0.17 0.16 0.12 0.10 0.09 0.08 0.15 0.10 0.05 0.06 0.04 0.03 0.02 0.02 0.02 0.04
0.07 0.07 0.07 0.06 0.06 0.05 0.06 0.08 0.08 0.08 0.09 0.11 0.11 0.11 0.10 0.08 0.09 0.12 0.15 0.24 0.31 0.19 0.13 0.10 0.09 0.10 0.12 0.12 0.11 0.09 0.08 0.09 0.09 0.11 0.10 0.08 0.07 0.05 0.04 0.02 0.02 0.02 0.03
0.08 0.06 0.07 0.07 0.05 0.04 0.06 0.06 0.05 0.06 0.08 0.12 0.14 0.12 0.11 0.10 0.09 0.12 0.22 0.29 0.26 0.17 0.13 0.11 0.09 0.09 0.08 0.07 0.07 0.09 0.10 0.09 0.09 0.09 0.08 0.09 0.07 0.06 0.04 0.02 0.02 0.02 0.02
0.07 0.07 0.09 0.07 0.06 0.04 0.04 0.04 0.04 0.07 0.08 0.10 0.10 0.11 0.12 0.13 0.15 0.19 0.19 0.19 0.17 0.14 0.12 0.10 0.07 0.04 0.05 0.05 0.05 0.08 0.11 0.11 0.10 0.10 0.09 0.09 0.06 0.05 0.04 0.02 0.01 0.02 0.02
0.05 0.05 0.05 0.07 0.06 0.04 0.03 0.03 0.04 0.09 0.09 0.08 0.08 0.11 0.13 0.15 0.16 0.15 0.11 0.10 0.14 0.12 0.09 0.07 0.05 0.04 0.04 0.03 0.04 0.07 0.10 0.10 0.10 0.11 0.11 0.09 0.06 0.04 0.04 0.03 0.02 0.02 0.03
0.04 0.05 0.05 0.05 0.03 0.03 0.03 0.03 0.05 0.07 0.06 0.06 0.08 0.11 0.11 0.11 0.09 0.08 0.10 0.11 0.13 0.09 0.06 0.04 0.05 0.04 0.03 0.03 0.04 0.08 0.11 0.12 0.13 0.13 0.12 0.10 0.07 0.04 0.04 0.04 0.04 0.04 0.03
0.02 0.04 0.05 0.05 0.03 0.02 0.03 0.06 0.05 0.06 0.06 0.08 0.10 0.08 0.09 0.08 0.06 0.07 0.12 0.11 0.10 0.07 0.05 0.04 0.03 0.03 0.03 0.03 0.04 0.07 0.12 0.15 0.16 0.14 0.11 0.08 0.06 0.04 0.05 0.05 0.05 0.05 0.05
0.01 0.02 0.04 0.05 0.04 0.02 0.03 0.05 0.04 0.04 0.05 0.06 0.06 0.08 0.10 0.07 0.05 0.05 0.07 0.08 0.08 0.08 0.06 0.05 0.04 0.04 0.04 0.04 0.04 0.06 0.09 0.10 0.11 0.15 0.11 0.07 0.06 0.05 0.05 0.04 0.05 0.05 0.05
0.01 0.02 0.02 0.03 0.02 0.01 0.02 0.02 0.03 0.05 0.04 0.05 0.07 0.17 0.14 0.16 0.11 0.06 0.06 0.06 0.06 0.05 0.06 0.06 0.05 0.05 0.05 0.05 0.04 0.04 0.05 0.07 0.08 0.09 0.07 0.08 0.08 0.06 0.04 0.04 0.04 0.05 0.06
0.01 0.01 0.01 0.01 0.01 0.01 0.01 0.01 0.02 0.02 0.03 0.05 0.08 0.12 0.20 0.26 0.14 0.08 0.05 0.04 0.04 0.03 0.04 0.04 0.04 0.05 0.06 0.05 0.05 0.04 0.05 0.04 0.04 0.05 0.08 0.08 0.08 0.05 0.05 0.05 0.06 0.05 0.06
0.01 0.01 0.01 0.02 0.02 0.01 0.01 0.02 0.02 0.03 0.04 0.04 0.05 0.06 0.11 0.18 0.16 0.10 0.07 0.05 0.03 0.02 0.03 0.04 0.03 0.04 0.04 0.05 0.06 0.06 0.06 0.03 0.02 0.03 0.04 0.05 0.06 0.07 0.10 0.13 0.12 0.07 0.07
0.00 0.01 0.01 0.02 0.03 0.03 0.03 0.02 0.03 0.04 0.05 0.04 0.03 0.04 0.05 0.10 0.11 0.08 0.05 0.04 0.03 0.02 0.03 0.03 0.03 0.03 0.04 0.07 0.09 0.10 0.06 0.04 0.04 0.04 0.04 0.05 0.06 0.06 0.10 0.16 0.14 0.10 0.09
0.00 0.00 0.01 0.01 0.01 0.02 0.02 0.01 0.02 0.04 0.05 0.04 0.03 0.03 0.04 0.05 0.06 0.04 0.02 0.02 0.01 0.01 0.02 0.03 0.03 0.03 0.05 0.08 0.08 0.12 0.08 0.06 0.06 0.05 0.05 0.04 0.05 0.07 0.10 0.14 0.15 0.11 0.09
0.00 0.00 0.00 0.00 0.01 0.01 0.01 0.01 0.02 0.03 0.03 0.02 0.03 0.03 0.03 0.03 0.03 0.03 0.02 0.02 0.02 0.03 0.04 0.04 0.04 0.05 0.07 0.10 0.11 0.09 0.06 0.07 0.05 0.05 0.06 0.07 0.08 0.10 0.11 0.11 0.09 0.10 0.09
0.00 0.01 0.01 0.01 0.02 0.03 0.02 0.01 0.01 0.02 0.02 0.02 0.02 0.02 0.02 0.03 0.02 0.03 0.02 0.03 0.04 0.06 0.07 0.08 0.10 0.11 0.11 0.11 0.12 0.10 0.10 0.08 0.07 0.07 0.07 0.09 0.16 0.14 0.12 0.10 0.08 0.06 0.08
0.01 0.01 0.01 0.02 0.02 0.02 0.01 0.01 0.01 0.01 0.01 0.01 0.01 0.01 0.01 0.02 0.02 0.02 0.03 0.04 0.06 0.08 0.09 0.10 0.10 0.10 0.08 0.07 0.08 0.09 0.10 0.09 0.08 0.08 0.08 0.10 0.13 0.13 0.10 0.09 0.07 0.06 0.05
0.01 0.01 0.01 0.01 0.02 0.02 0.02 0.01 0.01 0.01 0.01 0.02 0.02 0.02 0.02 0.02 0.02 0.02 0.03 0.04 0.05 0.07 0.07 0.06 0.05 0.05 0.05 0.06 0.05 0.06 0.08 0.08 0.08 0.09 0.09 0.09 0.11 0.12 0.09 0.06 0.05 0.05 0.06
MSLP
1008.89 1007.53 1006.13 1004.82 1003.69 1002.81 1002.21 1001.89 1001.83 1001.99 1002.33 1002.83 1003.46 1004.18 1004.99 1005.85 1006.74 1007.63 1008.49 1009.30 1010.03 1010.68 1011.26 1011.77 1012.23 1012.65 1013.05 1013.44 1013.82 1014.20 1014.57 1014.93 1015.27 1015.60 1015.89 1016.14 1016.34 1016.50 1016.63 1016.72 1016.80 1016.89 1016.99
1009.36 1008.18 1006.96 1005.82 1004.83 1004.03 1003.47 1003.12 1002.99 1003.04 1003.27 1003.65 1004.18 1004.83 1005.58 1006.40 1007.26 1008.12 1008.94 1009.70 1010.38 1010.99 1011.53 1012.02 1012.46 1012.89 1013.31 1013.71 1014.12 1014.51 1014.90 1015.28 1015.63 1015.97 1016.26 1016.52 1016.73 1016.89 1017.01 1017.09 1017.15 1017.21 1017.28
1009.70 1008.70 1007.69 1006.74 1005.93 1005.27 1004.78 1004.45 1004.28 1004.26 1004.40 1004.68 1005.10 1005.66 1006.34 1007.09 1007.88 1008.67 1009.43 1010.12 1010.74 1011.29 1011.79 1012.25 1012.69 1013.13 1013.56 1013.98 1014.41 1014.82 1015.22 1015.61 1015.97 1016.31 1016.61 1016.87 1017.08 1017.24 1017.34 1017.41 1017.46 1017.51 1017.57
1009.89 1009.09 1008.29 1007.56 1006.94 1006.45 1006.07 1005.80 1005.64 1005.59 1005.65 1005.85 1006.18 1006.65 1007.23 1007.90 1008.60 1009.31 1009.98 1010.59 1011.14 1011.63 1012.09 1012.53 1012.96 1013.40 1013.84 1014.28 1014.72 1015.14 1015.54 1015.92 1016.29 1016.62 1016.92 1017.18 1017.38 1017.54 1017.65 1017.71 1017.76 1017.81 1017.88
1010.00 1009.37 1008.78 1008.27 1007.86 1007.54 1007.30 1007.11 1006.99 1006.93 1006.96 1007.09 1007.35 1007.73 1008.22 1008.79 1009.40 1010.01 1010.59 1011.11 1011.59 1012.03 1012.45 1012.87 1013.29 1013.73 1014.18 1014.62 1015.06 1015.48 1015.87 1016.24 1016.59 1016.92 1017.21 1017.46 1017.67 1017.83 1017.93 1018.01 1018.06 1018.12 1018.20
1010.08 1009.63 1009.23 1008.92 1008.70 1008.54 1008.43 1008.34 1008.27 1008.22 1008.24 1008.33 1008.54 1008.85 1009.26 1009.74 1010.26 1010.77 1011.26 1011.70 1012.11 1012.50 1012.88 1013.28 1013.70 1014.13 1014.58 1015.02 1015.44 1015.84 1016.21 1016.56 1016.90 1017.21 1017.49 1017.74 1017.95 1018.12 1018.23 1018.31 1018.38 1018.45 1018.54
1010.23 1009.92 1009.68 1009.54 1009.47 1009.46 1009.45 1009.44 1009.42 1009.41 1009.42 1009.50 1009.67 1009.93 1010.28 1010.69 1011.12 1011.55 1011.95 1012.32 1012.67 1013.01 1013.37 1013.74 1014.15 1014.58 1015.02 1015.44 1015.84 1016.21 1016.56 1016.89 1017.20 1017.50 1017.78 1018.04 1018.25 1018.43 1018.56 1018.64 1018.72 1018.79 1018.89
1010.49 1010.29 1010.18 1010.16 1010.21 1010.29 1010.36 1010.41 1010.43 1010.43 1010.45 1010.53 1010.69 1010.93 1011.23 1011.59 1011.95 1012.31 1012.64 1012.94 1013.23 1013.53 1013.85 1014.21 1014.61 1015.03 1015.45 1015.86 1016.23 1016.58 1016.90 1017.20 1017.50 1017.79 1018.07 1018.34 1018.57 1018.76 1018.90 1018.99 1019.06 1019.14 1019.23
1010.88 1010.77 1010.74 1010.81 1010.92 1011.05 1011.15 1011.22 1011.25 1011.27 1011.31 1011.40 1011.56 1011.79 1012.08 1012.39 1012.71 1013.01 1013.27 1013.52 1013.75 1014.01 1014.30 1014.64 1015.02 1015.43 1015.84 1016.23 1016.58 1016.91 1017.20 1017.49 1017.77 1018.06 1018.35 1018.64 1018.89 1019.09 1019.24 1019.34 1019.40 1019.46 1019.53
1011.35 1011.31 1011.35 1011.45 1011.59 1011.72 1011.82 1011.88 1011.91 1011.93 1011.98 1012.09 1012.27 1012.51 1012.79 1013.09 1013.38 1013.63 1013.84 1014.03 1014.21 1014.42 1014.68 1015.00 1015.36 1015.76 1016.15 1016.53 1016.88 1017.18 1017.46 1017.74 1018.02 1018.31 1018.61 1018.91 1019.18 1019.40 1019.56 1019.66 1019.71 1019.74 1019.79
1011.84 1011.86 1011.94 1012.06 1012.19 1012.30 1012.37 1012.40 1012.41 1012.44 1012.50 1012.63 1012.84 1013.10 1013.40 1013.69 1013.96 1014.17 1014.34 1014.48 1014.61 1014.78 1015.00 1015.29 1015.64 1016.02 1016.40 1016.77 1017.11 1017.40 1017.68 1017.94 1018.22 1018.51 1018.82 1019.13 1019.41 1019.65 1019.82 1019.92 1019.97 1019.98 1019.99
1012.29 1012.37 1012.48 1012.60 1012.71 1012.78 1012.81 1012.81 1012.80 1012.82 1012.90 1013.06 1013.30 1013.60 1013.91 1014.22 1014.47 1014.67 1014.80 1014.89 1014.99 1015.11 1015.30 1015.56 1015.88 1016.24 1016.61 1016.97 1017.30 1017.59 1017.85 1018.11 1018.38 1018.67 1018.98 1019.29 1019.58 1019.83 1020.01 1020.12 1020.17 1020.17 1020.16
1012.64 1012.76 1012.90 1013.03 1013.12 1013.16 1013.16 1013.13 1013.11 1013.14 1013.24 1013.44 1013.71 1014.03 1014.37 1014.69 1014.94 1015.13 1015.24 1015.31 1015.37 1015.46 1015.61 1015.83 1016.12 1016.46 1016.82 1017.17 1017.48 1017.77 1018.02 1018.27 1018.52 1018.79 1019.09 1019.39 1019.68 1019.94 1020.13 1020.25 1020.31 1020.32 1020.31
1012.84 1013.02 1013.19 1013.33 1013.41 1013.44 1013.43 1013.40 1013.39 1013.43 1013.56 1013.78 1014.08 1014.43 1014.79 1015.12 1015.38 1015.57 1015.68 1015.73 1015.78 1015.84 1015.96 1016.16 1016.42 1016.73 1017.06 1017.39 1017.70 1017.97 1018.21 1018.43 1018.66 1018.91 1019.17 1019.45 1019.73 1019.98 1020.18 1020.33 1020.41 1020.45 1020.46
1012.91 1013.14 1013.34 1013.50 1013.60 1013.64 1013.65 1013.64 1013.66 1013.73 1013.89 1014.13 1014.44 1014.80 1015.17 1015.51 1015.79 1015.98 1016.10 1016.17 1016.21 1016.27 1016.38 1016.54 1016.77 1017.05 1017.36 1017.67 1017.95 1018.21 1018.43 1018.63 1018.83 1019.03 1019.26 1019.50 1019.74 1019.98 1020.19 1020.36 1020.48 1020.55 1020.60
1012.88 1013.14 1013.37 1013.56 1013.69 1013.78 1013.83 1013.88 1013.94 1014.05 1014.23 1014.48 1014.79 1015.14 1015.49 1015.83 1016.11 1016.33 1016.48 1016.57 1016.64 1016.72 1016.82 1016.97 1017.18 1017.43 1017.71 1017.99 1018.25 1018.49 1018.70 1018.87 1019.04 1019.19 1019.36 1019.55 1019.75 1019.96 1020.16 1020.34 1020.50 1020.62 1020.72
1012.78 1013.06 1013.31 1013.53 1013.72 1013.86 1013.99 1014.11 1014.23 1014.38 1014.58 1014.81 1015.09 1015.41 1015.73 1016.04 1016.33 1016.57 1016.76 1016.90 1017.02 1017.13 1017.25 1017.40 1017.59 1017.81 1018.07 1018.33 1018.58 1018.80 1018.99 1019.15 1019.28 1019.39 1019.50 1019.62 1019.77 1019.93 1020.10 1020.28 1020.46 1020.63 1020.77
1012.68 1012.94 1013.20 1013.45 1013.69 1013.91 1014.13 1014.33 1014.52 1014.72 1014.91 1015.12 1015.35 1015.60 1015.86 1016.14 1016.41 1016.67 1016.91 1017.11 1017.29 1017.45 1017.61 1017.78 1017.96 1018.17 1018.40 1018.65 1018.89 1019.11 1019.30 1019.44 1019.55 1019.62 1019.67 1019.72 1019.79 1019.88 1020.01 1020.17 1020.35 1020.54 1020.72
1012.59 1012.83 1013.07 1013.34 1013.62 1013.93 1014.23 1014.53 1014.79 1015.03 1015.22 1015.39 1015.54 1015.70 1015.89 1016.11 1016.36 1016.63 1016.92 1017.19 1017.44 1017.67 1017.87 1018.06 1018.25 1018.45 1018.67 1018.91 1019.15 1019.37 1019.57 1019.72 1019.81 1019.85 1019.85 1019.83 1019.81 1019.82 1019.88 1019.99 1020.14 1020.33 1020.53
1012.54 1012.72 1012.94 1013.20 1013.53 1013.90 1014.30 1014.68 1015.02 1015.29 1015.48 1015.60 1015.68 1015.74 1015.84 1015.99 1016.21 1016.49 1016.81 1017.15 1017.47 1017.77 1018.02 1018.24 1018.44 1018.64 1018.85 1019.08 1019.33 1019.57 1019.79 1019.95 1020.05 1020.06 1020.01 1019.92 1019.81 1019.73 1019.69 1019.73 1019.83 1019.99 1020.18
1012.52 1012.64 1012.80 1013.05 1013.40 1013.83 1014.31 1014.78 1015.19 1015.50 1015.69 1015.76 1015.76 1015.74 1015.75 1015.83 1016.01 1016.28 1016.64 1017.03 1017.42 1017.77 1018.08 1018.32 1018.53 1018.73 1018.93 1019.16 1019.42 1019.68 1019.92 1020.11 1020.21 1020.22 1020.13 1019.97 1019.78 1019.60 1019.46 1019.40 1019.43 1019.53 1019.69
1012.49 1012.54 1012.66 1012.88 1013.24 1013.71 1014.25 1014.80 1015.27 1015.63 1015.83 1015.88 1015.83 1015.73 1015.66 1015.68 1015.82 1016.08 1016.46 1016.89 1017.32 1017.73 1018.06 1018.33 1018.54 1018.73 1018.92 1019.15 1019.41 1019.69 1019.96 1020.17 1020.30 1020.30 1020.19 1019.98 1019.71 1019.43 1019.19 1019.02 1018.95 1018.98 1019.09
1012.41 1012.41 1012.47 1012.67 1013.02 1013.51 1014.10 1014.71 1015.26 1015.67 1015.89 1015.94 1015.86 1015.72 1015.60 1015.57 1015.68 1015.93 1016.31 1016.76 1017.23 1017.65 1018.00 1018.27 1018.47 1018.65 1018.83 1019.05 1019.31 1019.60 1019.89 1020.13 1020.28 1020.29 1020.17 1019.92 1019.59 1019.23 1018.89 1018.62 1018.45 1018.39 1018.43
1012.23 1012.21 1012.23 1012.39 1012.73 1013.23 1013.86 1014.52 1015.12 1015.59 1015.86 1015.94 1015.87 1015.72 1015.58 1015.52 1015.60 1015.84 1016.21 1016.66 1017.13 1017.56 1017.91 1018.16 1018.35 1018.50 1018.66 1018.86 1019.12 1019.41 1019.72 1019.98 1020.15 1020.18 1020.06 1019.80 1019.43 1019.01 1018.59 1018.23 1017.96 1017.81 1017.76
1011.93 1011.90 1011.91 1012.05 1012.36 1012.86 1013.50 1014.19 1014.85 1015.37 1015.70 1015.83 1015.80 1015.67 1015.54 1015.48 1015.56 1015.78 1016.13 1016.57 1017.02 1017.43 1017.76 1018.00 1018.16 1018.29 1018.42 1018.60 1018.84 1019.13 1019.45 1019.73 1019.92 1019.97 1019.87 1019.61 1019.23 1018.78 1018.30 1017.87 1017.52 1017.28 1017.14
1011.47 1011.48 1011.49 1011.61 1011.91 1012.39 1013.03 1013.74 1014.42 1015.00 1015.39 1015.59 1015.61 1015.54 1015.44 1015.40 1015.48 1015.69 1016.02 1016.44 1016.86 1017.24 1017.55 1017.76 1017.89 1017.99 1018.10 1018.26 1018.48 1018.77 1019.08 1019.37 1019.59 1019.67 1019.59 1019.36 1019.00 1018.54 1018.05 1017.57 1017.15 1016.83 1016.59
Thickness
5768 5772 5774 5775 5776 5777 5778 5779 5779 5779 5779 5779 5779 5778 5778 5778 5778 5778 5778 5778 5776 5775 5773 5772 5771 5770 5769 5768 5766 5765 5763 5761 5760 5758 5756 5755 5754 5753 5752 5751 5750 5748 5747
5771 5773 5774 5774 5775 5776 5776 5777 5777 5777 5777 5777 5777 5776 5777 5777 5777 5777 5777 5777 5776 5774 5772 5770 5769 5768 5767 5765 5764 5763 5761 5759 5758 5756 5755 5753 5752 5751 5750 5749 5748 5747 5746
5772 5773 5773 5774 5774 5775 5775 5774 5775 5775 5776 5776 5775 5775 5775 5776 5776 5776 5776 5775 5774 5773 5771 5769 5768 5766 5765 5764 5762 5761 5760 5758 5756 5754 5753 5751 5750 5749 5749 5748 5746 5746 5745
5772 5772 5772 5773 5773 5773 5773 5773 5773 5774 5774 5774 5774 5773 5774 5774 5775 5775 5774 5773 5773 5771 5769 5768 5766 5765 5763 5762 5761 5759 5758 5756 5754 5752 5751 5750 5749 5748 5747 5746 5746 5745 5744
5772 5772 5772 5772 5772 5772 5772 5772 5772 5772 5773 5773 5772 5772 5772 5772 5773 5773 5773 5772 5771 5770 5768 5766 5765 5763 5761 5760 5759 5757 5756 5754 5753 5751 5749 5748 5748 5747 5746 5746 5745 5744 5743
5771 5771 5771 5771 5771 5771 5771 5771 5771 5771 5771 5771 5771 5770 5770 5771 5772 5773 5771 5770 5769 5768 5766 5765 5764 5762 5760 5759 5758 5756 5755 5753 5752 5750 5749 5747 5746 5746 5746 5745 5745 5744 5743
5771 5771 5771 5771 5771 5771 5770 5770 5771 5771 5770 5770 5769 5769 5769 5769 5770 5770 5769 5768 5767 5766 5765 5763 5762 5760 5759 5758 5757 5755 5754 5753 5751 5749 5748 5746 5745 5745 5745 5745 5744 5743 5742
5772 5772 5772 5771 5771 5770 5770 5770 5771 5770 5770 5769 5768 5768 5767 5768 5768 5768 5767 5766 5765 5764 5763 5762 5761 5759 5758 5757 5756 5754 5753 5751 5750 5748 5747 5746 5745 5745 5744 5743 5743 5741 5741
5774 5772 5772 5771 5770 5770 5770 5770 5770 5770 5769 5768 5768 5767 5766 5766 5766 5765 5765 5765 5764 5763 5762 5761 5760 5758 5757 5756 5755 5753 5752 5751 5750 5748 5747 5745 5745 5744 5743 5742 5741 5741 5740
5774 5773 5772 5771 5770 5770 5770 5770 5770 5770 5769 5768 5767 5767 5766 5765 5764 5764 5764 5764 5763 5762 5761 5760 5759 5757 5756 5756 5754 5753 5752 5750 5748 5747 5746 5745 5744 5743 5742 5741 5740 5740 5739
5773 5773 5772 5772 5770 5770 5769 5770 5769 5769 5768 5767 5766 5766 5765 5764 5763 5763 5763 5762 5761 5761 5760 5759 5758 5757 5756 5755 5754 5753 5751 5750 5748 5747 5746 5746 5745 5743 5742 5741 5740 5739 5739
5771 5772 5773 5772 5771 5770 5770 5769 5768 5768 5768 5767 5766 5765 5764 5763 5762 5762 5762 5762 5760 5759 5759 5758 5757 5756 5755 5754 5754 5753 5752 5750 5748 5747 5746 5746 5745 5743 5741 5740 5739 5739 5738
5773 5773 5773 5773 5772 5771 5770 5769 5768 5768 5768 5767 5765 5765 5763 5762 5761 5761 5761 5760 5759 5758 5757 5757 5756 5755 5755 5755 5754 5754 5752 5751 5749 5747 5746 5745 5744 5743 5741 5740 5739 5738 5737
5775 5775 5775 5774 5773 5772 5771 5770 5769 5768 5767 5766 5765 5764 5763 5761 5760 5760 5759 5759 5758 5757 5757 5756 5756 5755 5755 5755 5755 5754 5753 5751 5749 5748 5746 5745 5744 5743 5741 5740 5739 5738 5737
5777 5776 5776 5776 5774 5773 5772 5770 5769 5768 5767 5766 5765 5765 5764 5762 5760 5759 5759 5758 5757 5757 5757 5756 5756 5756 5756 5755 5755 5754 5753 5751 5749 5748 5746 5745 5743 5742 5741 5740 5739 5738 5737
5779 5778 5778 5777 5776 5775 5773 5771 5769 5768 5767 5766 5765 5765 5764 5763 5761 5760 5759 5758 5758 5757 5757 5756 5756 5756 5755 5754 5754 5753 5752 5750 5748 5746 5745 5743 5742 5741 5740 5739 5738 5737 5736
5782 5781 5780 5779 5778 5776 5774 5772 5771 5770 5769 5767 5766 5766 5765 5764 5763 5761 5760 5759 5758 5758 5758 5757 5756 5756 5755 5754 5752 5752 5751 5750 5747 5745 5744 5742 5741 5740 5739 5739 5738 5737 5736
5785 5782 5782 5782 5778 5776 5775 5774 5772 5771 5770 5769 5768 5767 5765 5764 5763 5762 5760 5759 5759 5758 5758 5757 5756 5754 5753 5751 5750 5750 5749 5748 5746 5744 5742 5741 5740 5739 5738 5738 5737 5736 5735
5788 5785 5782 5782 5779 5777 5776 5775 5774 5773 5772 5771 5769 5768 5766 5765 5764 5762 5761 5760 5759 5758 5758 5757 5755 5754 5751 5750 5749 5748 5748 5747 5745 5743 5741 5741 5740 5739 5738 5737 5737 5735 5734
5791 5788 5785 5783 5781 5779 5777 5775 5774 5773 5772 5772 5771 5769 5768 5767 5765 5763 5761 5760 5760 5758 5757 5756 5755 5754 5752 5751 5750 5747 5745 5745 5744 5742 5741 5740 5739 5738 5737 5736 5735 5734 5733
5792 5789 5786 5783 5782 5780 5777 5774 5771 5770 5771 5771 5771 5770 5769 5767 5766 5764 5762 5761 5760 5758 5757 5757 5755 5752 5750 5750 5745 5741 5741 5742 5741 5741 5740 5739 5738 5737 5736 5734 5733 5732 5731
5792 5790 5788 5786 5784 5782 5780 5777 5775 5773 5771 5771 5771 5770 5769 5768 5766 5765 5763 5761 5760 5758 5757 5756 5754 5751 5749 5749 5743 5736 5730 5731 5736 5739 5738 5737 5736 5735 5733 5732 5730 5730 5729
5793 5792 5791 5788 5786 5784 5783 5780 5777 5774 5771 5769 5768 5768 5769 5768 5767 5766 5764 5762 5761 5759 5756 5755 5754 5751 5747 5747 5746 5739 5729 5724 5728 5732 5734 5735 5734 5732 5730 5729 5728 5727 5726
5797 5796 5793 5791 5788 5785 5783 5780 5775 5770 5766 5767 5768 5768 5769 5769 5768 5766 5765 5763 5761 5759 5756 5755 5755 5752 5749 5744 5744 5744 5740 5736 5728 5724 5727 5729 5730 5729 5727 5727 5726 5724 5723
5801 5798 5795 5792 5789 5787 5785 5781 5776 5772 5769 5769 5769 5768 5768 5768 5767 5766 5765 5764 5762 5759 5757 5756 5754 5752 5750 5746 5743 5742 5739 5737 5734 5726 5720 5722 5724 5724 5724 5723 5722 5721 5720
5802 5799 5796 5792 5789 5788 5785 5782 5778 5773 5770 5768 5767 5766 5766 5766 5766 5766 5765 5763 5762 5760 5757 5756 5754 5752 5750 5748 5745 5743 5739 5734 5731 5727 5721 5718 5717 5719 5720 5720 5719 5717 5716